Location: Peterborough
(44.3091°N, 78.3197°W)
Time: 19:38:06
(UTC-04:00)

Vanguard 2 Rocket - Pass Details

Date: 27 March 2023
Orbit: 554 x 3314 km, 32.9° (Epoch: 06 June)

Event Time Altitude Azimuth Distance (km) Brightness Sun altitude
Rises 20:37:54 0° 237° (WSW) 3,419 10.5 -12.0°
Reaches altitude 10° 20:40:10 10° 227° (SW) 2,720 9.8 -12.4°
Maximum altitude 20:46:11 36° 163° (SSE) 2,015 8.4 -13.4°
Enters shadow 20:52:53 18° 110° (ESE) 3,544 9.2 -14.6°
